Theta_e
316 316 316 316 317 317 317 318 318 319 319 318 318 318 319 319 317 307 299 307 313 331 327 310 306 304 301 297 298 298 290 286 289 292 294 297 296 301 304 302 304 306 306 310 311
315 315 316 316 316 316 317 317 317 318 318 318 319 319 319 318 306 301 318 329 330 330 309 306 304 303 298 297 296 293 288 289 295 295 294 296 298 300 301 301 300 303 307 310 313
315 315 315 315 316 316 316 316 317 318 318 317 319 318 318 314 296 298 330 330 329 322 310 307 304 300 295 296 295 290 289 293 296 298 299 298 298 301 299 298 301 300 304 306 308
314 314 314 315 315 316 316 316 317 317 317 317 319 319 317 305 288 300 331 331 331 316 308 302 298 294 292 292 294 290 296 296 297 299 297 297 300 298 299 300 304 304 304 304 306
314 314 314 314 315 315 316 316 316 316 317 317 319 320 307 294 294 303 333 329 316 311 303 296 293 292 289 291 292 292 293 296 298 297 296 298 297 297 297 302 305 305 305 304 304
314 313 313 313 314 315 316 316 316 316 316 317 319 319 297 292 301 304 313 311 309 301 298 296 294 294 291 293 292 293 294 295 296 296 295 294 295 296 299 302 303 303 302 303 304
314 313 312 313 314 315 316 316 315 316 316 317 320 315 296 294 301 301 304 297 300 301 296 296 296 292 291 289 294 294 290 293 293 294 291 294 291 291 298 301 299 300 301 303 303
314 313 312 313 313 314 315 315 315 317 318 319 321 309 296 301 302 300 300 300 302 300 299 298 296 293 291 292 290 288 286 281 287 291 292 291 285 294 298 298 298 298 300 302 302
314 312 312 312 313 314 314 314 318 320 319 321 309 301 292 309 301 301 299 299 300 301 300 303 295 290 290 284 281 283 280 281 284 290 289 289 286 292 297 298 296 297 297 299 302
314 312 312 312 313 313 313 313 318 316 316 316 308 294 297 296 301 302 301 301 299 298 296 294 288 285 284 283 278 281 280 282 282 287 288 285 286 291 295 295 294 295 296 298 300
314 312 312 312 312 312 306 297 296 296 298 295 297 298 300 303 303 300 301 299 298 294 288 289 285 281 284 286 286 285 283 282 286 289 285 287 288 290 293 293 292 292 294 296 297
313 312 312 311 311 312 300 296 296 297 292 300 300 301 305 302 296 299 302 294 292 287 288 286 281 287 290 289 287 285 283 282 286 289 289 287 288 291 292 292 292 293 294 295 295
312 312 311 311 311 302 297 296 300 300 292 299 303 299 297 297 294 297 300 295 290 287 286 283 286 291 290 287 286 284 283 283 284 289 289 285 285 286 292 291 293 294 294 295 296
312 311 310 309 301 297 295 299 300 302 286 292 296 295 297 295 296 303 302 296 292 287 287 285 289 290 287 286 287 282 288 288 287 284 279 287 278 283 288 290 293 296 298 302 302
311 311 310 308 296 296 298 300 302 299 278 291 291 297 296 296 297 299 301 297 290 290 288 286 287 287 285 287 289 285 290 288 287 283 280 281 276 281 290 291 294 298 301 302 304
311 310 309 303 297 300 302 300 301 286 278 289 291 290 292 295 296 298 296 297 295 289 289 288 292 289 288 292 291 292 287 286 282 279 272 279 279 279 289 291 294 296 298 299 299
311 308 304 302 295 298 299 299 288 279 289 287 287 290 289 291 293 294 291 288 286 282 282 286 288 290 293 288 290 287 282 272 272 272 273 281 281 281 293 296 295 294 295 297 298
307 305 304 304 298 300 297 289 281 286 285 289 289 290 289 291 290 291 288 285 290 287 282 280 280 288 292 288 284 284 282 275 268 271 275 285 278 283 296 297 296 296 295 296 297
304 297 299 304 304 298 292 281 281 285 289 287 288 286 285 289 289 288 286 287 289 289 281 281 283 291 293 293 290 285 283 289 284 283 280 278 283 291 295 292 292 293 293 293 295
294 295 299 302 300 296 289 286 286 290 291 290 283 286 280 284 285 284 285 291 291 293 291 286 283 289 292 292 293 288 292 283 280 275 274 278 280 280 288 288 289 290 290 291 293
293 292 300 299 299 292 285 284 289 292 293 289 286 284 285 284 285 283 286 291 295 293 291 288 287 285 288 285 283 284 283 287 288 283 278 274 279 290 288 289 288 289 291 291 292
289 290 297 296 289 284 284 288 295 293 293 291 289 288 286 287 283 284 286 289 296 294 288 289 286 283 283 290 292 289 287 287 282 278 284 282 281 293 291 291 291 290 291 292 293
287 287 299 295 284 283 287 291 293 292 290 290 289 290 289 285 278 286 288 295 295 293 290 289 282 281 279 283 289 288 290 290 289 287 282 280 283 294 293 291 292 290 291 292 292
289 288 291 290 287 284 283 286 288 295 291 292 289 289 286 284 285 283 286 292 295 294 300 297 286 281 276 282 288 286 288 289 288 281 281 282 284 288 290 289 290 291 292 292 293
289 289 288 285 286 285 285 287 288 289 292 290 286 288 285 280 282 284 286 287 292 297 291 290 282 282 285 287 287 286 286 288 287 287 282 283 284 288 290 290 290 291 292 292 292
289 287 288 286 287 286 288 285 288 290 289 286 284 288 286 282 284 281 284 284 286 290 288 291 285 288 286 289 288 285 287 289 288 286 285 286 285 291 292 292 290 291 291 291 292
292 292 290 288 285 284 284 288 289 289 290 291 288 286 285 287 289 290 288 287 289 288 287 289 288 287 282 286 283 279 287 287 286 287 286 282 287 290 289 289 290 291 292 291 292
Wind_Speed
20 20 18 17 16 16 16 15 14 12 10 10 10 11 11 11 8 0 5 1 3 5 4 4 3 2 3 4 3 4 6 2 4 5 8 6 9 3 7 6 5 7 6 15 15
21 20 19 17 15 14 14 13 14 14 12 10 10 10 9 8 3 6 1 4 4 6 6 8 7 4 4 4 4 6 4 6 3 4 7 7 9 13 10 16 4 11 11 13 16
22 21 19 18 16 15 14 13 11 12 12 10 9 7 6 4 5 5 4 5 5 4 2 1 2 4 6 4 4 1 4 4 5 5 5 8 8 7 12 10 11 13 19 14 14
23 22 21 19 17 16 15 15 13 11 10 9 8 7 6 2 6 5 8 7 6 4 3 4 6 5 4 3 3 2 5 4 5 6 6 13 10 7 10 12 10 11 11 8 16
23 22 21 20 19 17 16 15 14 11 9 7 7 7 4 6 2 3 3 3 2 2 4 3 5 3 2 1 3 4 4 3 7 9 8 10 8 10 11 12 8 8 11 10 14
22 23 21 20 19 17 16 15 13 11 8 6 5 1 2 10 0 1 3 1 2 2 3 4 1 1 2 2 3 3 5 7 7 8 5 6 10 7 6 10 7 8 10 11 11
22 22 23 21 19 18 15 14 13 10 6 5 3 1 4 3 2 2 4 1 3 1 2 1 2 2 2 3 3 3 4 6 4 5 6 4 6 8 10 8 9 10 10 10 10
21 21 22 22 21 18 17 15 13 6 3 4 3 0 2 2 1 1 2 3 3 1 0 3 2 4 3 2 7 4 3 5 6 5 8 2 13 8 14 7 15 12 11 10 12
22 22 21 23 23 21 19 17 2 5 3 5 1 0 1 4 2 2 2 0 2 4 5 3 6 4 6 3 5 6 6 6 8 5 6 4 11 10 16 14 13 12 11 10 10
23 22 22 21 23 20 20 5 5 6 2 3 1 4 4 3 2 2 0 2 3 4 6 8 6 4 5 7 3 9 7 7 8 7 5 8 14 8 10 12 15 15 14 9 11
23 23 22 22 21 19 9 3 7 4 7 2 2 1 5 6 1 2 2 2 3 6 3 3 5 1 6 5 8 6 6 10 13 8 5 14 19 16 16 15 18 13 13 10 11
24 23 23 22 20 14 2 6 2 3 4 2 3 5 6 2 3 7 5 4 2 4 1 6 1 4 6 6 3 4 6 8 9 5 9 12 23 19 18 15 18 16 11 13 8
23 24 23 22 20 4 2 3 4 3 2 5 4 3 4 2 2 5 5 3 3 3 2 4 2 2 2 2 5 3 6 6 10 17 6 6 17 6 17 8 14 16 12 10 8
24 23 22 22 3 2 1 5 2 3 5 3 1 1 5 2 2 2 4 1 4 4 3 3 3 4 5 1 4 4 2 7 15 7 7 7 16 2 9 14 12 14 12 12 10
26 24 19 8 2 2 2 6 2 5 0 2 1 2 5 5 3 5 4 6 1 4 3 5 4 6 3 2 2 8 9 13 13 7 4 1 1 7 7 12 18 17 18 18 17
28 25 13 1 1 4 4 2 5 7 5 2 2 5 4 5 3 5 7 6 2 3 3 5 4 1 2 4 3 10 5 10 3 2 2 4 1 4 4 4 12 17 17 18 21
29 26 5 2 2 2 1 5 6 4 2 0 1 4 1 4 3 6 4 7 4 6 6 8 5 4 2 5 6 10 8 6 8 5 6 3 5 8 3 4 10 16 17 17 18
31 19 4 3 2 3 4 6 2 3 3 1 3 2 3 6 2 6 2 1 4 3 1 4 8 4 4 1 3 3 3 3 5 4 9 10 6 7 5 7 10 12 12 16 17
24 4 2 3 3 3 7 3 6 5 3 0 2 4 2 1 0 5 2 4 3 1 2 2 6 1 7 2 1 2 1 3 6 5 5 4 7 2 6 12 16 14 15 16 16
5 5 4 5 3 5 6 6 4 3 5 3 1 2 1 3 1 3 2 3 3 6 3 3 7 1 3 2 2 0 1 2 2 5 6 6 6 5 11 15 18 22 21 21 20
4 5 3 4 4 6 4 7 5 5 6 5 6 3 5 2 2 2 3 3 5 5 4 5 4 6 4 3 4 2 1 1 4 3 4 6 6 3 5 10 13 17 19 18 19
3 4 2 2 4 1 3 5 2 4 3 5 5 7 7 5 3 4 6 7 6 5 3 6 4 4 10 7 6 5 4 3 3 3 5 4 7 5 5 7 15 18 17 18 15
3 5 4 3 2 2 5 4 3 4 5 7 7 6 4 7 1 6 5 5 5 6 6 5 2 5 9 6 2 0 4 5 6 4 8 6 5 2 9 14 13 17 18 17 17
2 4 5 5 1 6 1 4 4 2 3 5 5 4 4 5 5 4 5 5 2 7 6 8 3 7 7 7 8 10 9 10 7 4 5 10 22 13 14 13 16 16 18 15 18
1 5 3 3 2 2 4 2 3 3 2 6 2 7 8 5 4 6 5 4 4 2 2 7 6 6 11 16 17 17 17 14 12 6 6 9 20 18 9 13 16 16 16 18 20
3 1 2 3 2 4 6 5 6 4 5 5 5 7 8 8 11 9 6 5 7 2 4 2 4 4 8 15 11 15 13 12 7 5 11 15 20 6 12 13 16 17 17 17 18
2 1 4 3 2 4 6 7 6 4 5 6 8 4 6 13 11 15 9 6 6 9 7 6 2 2 6 4 9 6 7 8 4 6 7 11 9 9 11 15 15 16 18 18 19
Wind_Direction
356 354 353 351 349 348 347 347 345 343 345 339 345 342 340 341 333 133 46 320 21 340 337 304 51 40 40 69 48 120 56 17 282 332 294 318 336 329 277 275 320 295 279 287 310
354 352 350 348 347 344 340 340 337 333 340 343 350 348 346 348 3 48 329 82 37 355 41 30 6 11 45 27 28 81 110 219 219 274 285 303 324 317 326 315 269 315 302 293 304
352 351 348 345 343 340 335 334 334 329 331 335 343 349 336 326 43 342 9 100 62 31 64 125 10 48 56 13 360 103 167 223 263 275 297 297 300 303 307 303 303 300 304 310 305
351 349 346 343 340 337 332 330 331 328 323 321 323 334 333 304 69 282 8 51 42 0 17 26 28 45 70 38 340 10 256 247 275 294 327 306 307 293 272 286 277 291 289 300 309
350 349 345 340 336 332 326 324 324 323 314 303 310 333 340 46 100 16 64 55 27 37 32 47 50 96 64 301 319 165 246 224 285 299 280 282 278 279 288 286 289 311 314 312 311
347 348 345 339 332 329 323 319 316 312 299 278 281 274 85 69 161 21 167 137 65 28 346 42 123 233 129 247 131 260 291 287 278 284 259 266 294 330 295 291 298 303 298 300 296
346 346 343 338 332 330 324 318 312 304 279 241 251 296 70 92 8 203 162 14 176 283 3 353 185 83 112 322 243 249 300 328 282 280 285 323 308 291 277 300 297 287 288 287 286
345 344 342 337 333 333 329 321 308 287 201 204 212 353 97 176 314 7 34 332 14 77 152 325 144 96 50 343 356 349 56 355 269 278 266 85 296 273 289 305 301 297 284 288 292
344 342 340 337 333 334 327 319 312 124 138 170 149 86 351 338 77 225 129 286 313 344 21 68 60 73 31 46 8 354 275 267 300 236 277 216 293 281 295 297 286 291 285 280 292
341 341 338 336 332 332 324 288 98 106 195 215 264 47 329 293 304 256 1 8 25 347 11 35 45 64 28 46 307 289 299 271 263 298 299 291 283 283 286 287 280 279 284 276 287
339 337 337 335 333 334 350 47 21 350 49 153 171 200 282 290 211 236 16 21 47 50 350 1 57 93 261 228 230 264 259 258 284 278 319 299 286 285 279 278 286 270 271 270 266
336 336 335 333 329 329 342 86 166 196 320 148 242 276 254 241 335 352 21 16 25 283 95 6 184 195 285 293 292 286 286 277 281 295 301 293 288 282 294 276 271 270 268 276 300
335 333 333 331 321 25 15 6 321 44 98 303 214 239 286 77 79 350 32 331 248 276 332 201 215 277 2 72 25 282 261 292 288 316 228 290 284 342 312 277 285 292 278 297 300
334 335 334 326 55 303 346 331 0 99 71 276 18 332 1 35 139 80 1 232 352 291 319 222 282 1 336 97 41 308 278 305 306 334 302 71 291 358 342 353 354 352 350 342 322
332 335 335 337 169 99 295 318 166 59 351 156 97 23 350 56 330 5 22 12 38 290 23 266 305 342 341 342 337 249 305 273 282 269 336 272 265 274 5 359 347 347 350 348 344
332 334 337 64 25 260 314 332 49 49 242 182 45 6 45 359 37 335 16 21 65 10 339 256 304 218 251 326 286 295 336 320 59 102 22 238 134 275 5 329 343 344 343 344 341
331 329 304 150 211 286 5 51 38 146 8 186 26 10 98 343 19 27 45 14 54 18 345 326 328 325 68 335 344 18 18 342 353 1 234 222 315 245 211 39 30 338 333 337 334
329 321 214 234 216 13 58 53 200 179 227 54 66 351 90 17 29 350 76 18 24 62 3 22 325 6 357 106 280 336 101 146 283 282 291 280 235 262 133 56 6 351 329 331 333
325 331 319 278 187 127 79 82 216 202 171 60 25 80 356 312 338 23 3 201 190 120 81 347 262 243 316 321 180 311 102 147 272 268 271 249 287 290 34 3 360 344 341 341 331
332 346 277 310 149 67 84 225 207 213 138 98 141 136 280 234 308 37 265 209 199 193 151 227 287 254 288 4 46 231 205 16 325 294 283 271 273 249 1 350 345 347 342 339 336
31 7 273 359 79 52 172 222 220 211 148 153 194 195 223 269 216 245 234 272 190 204 177 164 181 286 353 184 187 336 168 225 258 222 285 302 258 91 29 358 342 336 331 335 331
16 336 309 58 42 31 181 205 290 227 156 196 140 179 195 192 238 245 218 211 179 170 205 208 174 270 256 283 235 192 189 169 256 274 253 267 276 110 71 356 353 336 326 327 329
337 261 316 92 204 266 298 292 272 209 190 180 200 182 168 183 21 212 219 248 241 169 185 177 271 299 333 357 16 214 226 245 242 254 249 277 270 131 13 349 348 331 323 323 326
335 324 314 47 45 127 34 259 267 238 191 170 184 133 131 191 224 243 225 271 194 204 225 171 190 199 214 248 282 277 248 264 253 240 293 256 289 318 339 338 334 324 322 319 326
184 247 205 281 298 109 167 261 255 257 209 170 204 196 168 195 216 230 227 266 279 199 100 145 220 201 246 258 271 268 269 257 246 242 254 299 294 309 331 331 315 314 315 316 323
239 217 348 271 262 176 178 237 212 223 191 238 206 214 172 183 188 224 193 192 224 141 147 178 262 217 266 270 271 274 263 262 223 251 268 290 291 1 334 315 317 318 317 315 325
221 228 135 249 215 135 219 213 228 144 266 229 209 159 192 229 219 232 211 209 200 170 184 164 209 274 276 339 311 288 215 169 211 236 282 288 295 332 318 322 318 313 312 310 323